CAPE
0 0 0 0 0 0 0 0 0 0 0 0 0 0 0 0 0 0 0 0 0 0 0 78 383 1152 1411 1229 597 423 100 0 0 0 0 0 0 0 0 0 0 0 0 0
0 0 0 0 0 0 2 0 0 0 0 23 0 0 0 0 0 0 0 0 0 0 0 15 357 1213 1275 1241 353 218 45 0 0 0 0 0 0 0 0 0 0 0 0 0
0 0 0 0 0 2 0 4 0 0 0 1 0 0 0 0 0 0 0 0 0 0 0 6 310 930 1237 1187 647 220 73 1 0 0 0 0 0 0 0 0 0 0 0 0
0 0 0 0 0 0 0 6 2 5 18 4 6 0 0 0 0 3 1 1 0 0 2 3 48 722 1377 1156 752 219 51 0 0 0 0 0 0 0 0 0 0 0 0 0
0 0 0 0 0 0 0 2 0 0 12 17 0 9 0 0 0 0 54 0 0 0 0 0 0 607 987 1125 876 253 30 0 0 0 0 0 0 0 0 0 0 0 0 0
0 0 0 0 0 0 0 0 0 4 1 10 0 22 0 0 0 10 0 0 0 0 0 0 0 0 835 692 807 281 7 0 0 0 0 0 0 0 0 0 0 0 0 0
0 0 8 0 0 0 9 14 4 3 11 0 6 21 0 1 0 0 0 0 0 0 0 0 0 0 37 455 672 241 7 0 0 0 0 0 0 0 0 0 0 0 0 0
0 0 40 0 0 0 1 24 33 21 27 62 0 42 2 0 0 0 0 0 0 0 0 0 0 0 0 0 60 315 49 0 0 0 0 0 0 0 0 0 0 0 0 0
0 0 38 2 0 0 2 23 5 29 9 1 0 0 2 0 0 0 0 0 0 0 0 0 0 0 0 0 0 3 49 13 0 0 0 0 0 0 0 0 0 0 0 0
7 1 0 23 0 0 0 0 17 49 54 4 5 0 25 0 2 3 0 0 0 0 0 0 0 0 0 0 0 0 0 5 16 0 0 0 0 0 0 0 0 0 0 0
0 0 0 5 14 8 11 4 0 0 0 23 10 0 3 3 2 0 0 0 0 0 0 0 0 0 0 0 0 0 0 0 0 2 0 0 0 0 0 0 0 0 0 0
3 0 0 0 0 0 17 7 11 1 0 0 0 0 0 0 0 0 0 0 0 0 0 0 0 0 2 0 0 0 0 0 0 0 9 0 0 0 0 0 0 0 0 0
0 19 7 0 0 0 2 25 18 4 0 0 1 0 3 4 8 0 0 0 0 0 0 0 0 0 0 28 3 0 0 0 0 0 0 0 0 0 0 0 0 0 0 0
0 0 0 0 0 0 0 0 17 19 3 2 0 0 0 0 0 0 0 0 0 0 0 0 0 0 0 0 2 7 0 0 0 0 0 0 0 0 0 0 0 0 0 0
5 1 0 0 0 0 0 0 0 0 2 28 0 0 0 0 0 0 0 0 0 0 0 0 0 0 0 0 0 12 2 0 0 0 0 0 0 0 0 0 0 0 0 0
2 8 2 0 0 1 8 0 0 0 0 0 0 0 0 0 0 0 0 0 0 0 0 0 0 0 0 14 4 8 1 16 0 0 0 0 0 0 0 0 0 0 0 0
0 1 0 0 6 3 0 0 2 1 5 3 0 0 0 0 0 0 0 0 9 47 20 31 22 16 6 3 1 1 3 6 15 0 0 0 0 0 0 0 0 0 0 0
0 0 3 0 1 2 0 0 0 2 1 1 0 0 0 0 0 0 0 20 92 82 36 22 1 0 21 1 1 1 3 2 0 18 0 0 0 0 0 0 0 0 0 0
0 2 0 1 0 0 0 0 0 0 2 0 0 0 0 0 0 0 0 5 2 0 0 2 3 1 6 0 0 0 2 0 0 22 7 0 0 0 0 0 1 1 1 1
7 23 12 3 13 1 0 0 0 0 0 0 0 0 0 0 0 0 13 0 0 0 0 0 1 49 11 0 14 0 0 0 0 1 31 1 0 0 0 1 1 2 1 0
13 27 4 2 15 5 0 0 1 3 0 0 0 0 0 0 0 0 9 0 0 0 0 5 2 32 27 0 27 11 0 0 0 0 0 0 0 0 0 1 1 1 1 2
2 0 0 5 14 4 0 2 6 1 0 2 0 0 0 0 0 0 0 0 0 0 1 46 26 12 36 28 3 2 0 0 0 0 0 0 0 0 2 2 2 2 2 1
0 2 4 7 0 0 0 0 2 2 7 5 13 0 21 15 3 19 3 0 0 0 4 56 3 34 10 4 0 0 0 1 0 0 0 1 2 3 3 3 2 0 0 0
0 0 0 0 0 0 0 11 29 16 15 23 26 15 16 15 33 47 42 8 11 6 11 0 8 40 96 0 0 0 0 0 0 0 1 2 2 1 1 1 0 0 1 0
0 1 0 0 0 0 1 0 10 16 17 23 10 15 18 23 56 63 77 65 1 28 4 0 39 108 0 0 0 0 0 1 1 2 2 1 1 1 0 0 1 0 0 0
1 0 0 0 0 2 0 10 32 39 7 2 14 11 11 2 45 110 89 37 79 27 0 6 78 17 0 0 0 0 1 1 1 1 1 1 0 0 1 0 0 0 0 0
CIN
0 0 0 0 0 0 0 0 0 0 0 0 0 0 0 0 0 0 0 0 0 0 0 -17 -42 -28 -57 -17 -135 -302 -407 0 0 0 0 0 0 0 0 0 0 0 0 0
0 0 0 0 -1 -1 -2 0 0 0 0 -3 -1 0 0 0 0 0 0 0 0 0 0 -30 -41 -55 -85 -63 -129 -304 -441 0 0 0 0 0 0 0 0 0 0 0 0 0
0 0 0 0 0 -4 -1 -1 -1 0 0 -2 -2 0 0 0 0 0 0 0 0 0 0 -4 -23 -65 -123 -103 -84 -224 -377 -250 0 0 0 0 0 0 0 0 0 0 0 0
0 0 0 0 0 -1 0 -57 -9 -2 -31 -1 -4 0 0 0 -1 -13 -3 -1 0 0 -23 -17 -6 -76 -123 -151 -119 -179 -291 0 0 0 0 0 0 0 0 0 0 0 0 0
0 0 0 0 0 0 0 -9 -3 0 -12 -8 0 -6 0 0 0 0 -13 0 0 0 0 0 0 -37 -94 -135 -112 -182 -298 0 0 0 0 0 0 0 0 0 0 0 0 0
0 0 0 0 0 0 0 0 0 -8 -6 -16 0 -2 0 0 0 -5 0 0 0 0 0 0 0 0 -40 -78 -49 -102 -242 0 0 0 0 0 0 0 0 0 0 0 0 0
0 0 -6 0 0 0 -3 -3 -2 -2 0 -2 -27 -4 0 -6 -9 0 0 0 0 0 0 0 0 0 -13 -15 -41 -76 -163 0 0 0 0 0 0 0 0 0 0 0 0 0
0 0 -15 0 0 0 0 -2 -2 -2 -9 -14 0 -28 -5 0 0 0 0 0 0 0 0 0 0 0 0 0 -17 -28 -128 -29 0 0 0 0 0 0 0 0 0 0 0 0
-2 0 -15 -65 0 0 -6 -4 -29 -13 -27 -1 0 0 -6 0 0 0 0 0 0 0 0 0 0 0 0 0 0 -10 -37 -74 -6 0 0 0 0 0 0 0 0 0 0 0
-4 -2 0 -20 0 0 0 0 -7 -6 -5 -5 -5 0 -20 0 0 0 0 0 0 0 0 0 0 0 0 0 0 0 0 -18 -11 -22 0 0 0 0 0 0 0 0 0 0
0 -3 0 -24 -12 -10 -7 -1 0 0 0 -3 -3 0 0 0 0 0 0 0 0 0 0 0 0 0 0 0 0 0 0 0 0 -15 0 0 0 0 0 0 0 0 0 0
-6 0 -2 0 0 -1 -12 -13 0 0 0 0 0 0 0 0 0 0 0 0 0 0 0 0 0 0 -14 0 0 0 0 0 0 0 -5 0 0 0 0 0 0 0 0 0
0 -4 -2 -1 0 0 -1 -12 -3 -13 -1 0 0 0 -7 -10 -16 -1 0 0 0 0 0 0 0 0 -2 -12 -74 -1 0 0 0 0 0 0 0 0 0 0 0 0 0 0
0 0 0 0 -1 0 0 0 -8 -5 -3 -2 -8 -1 0 0 0 0 0 0 0 0 0 0 0 0 0 0 -3 -43 0 0 0 0 0 0 0 0 0 0 0 0 0 0
-13 -8 0 0 0 0 -1 0 0 0 -3 -2 0 0 0 0 0 0 0 0 0 0 0 0 0 0 0 0 0 -27 -32 0 0 0 0 0 0 0 0 0 0 0 0 0
-63 -42 -7 0 -1 -2 -8 0 0 -7 0 0 0 0 0 0 0 0 0 0 0 0 0 0 0 0 0 -4 -7 -4 0 -31 0 0 0 0 0 0 0 0 0 0 0 0
0 -9 -1 0 -3 -9 0 0 -17 -6 -9 -8 -19 0 0 0 0 0 0 -1 -6 -26 -15 -22 -37 -11 -8 -12 -3 -10 -5 -3 -4 0 0 0 0 0 0 0 0 0 0 0
0 0 -15 0 -3 -2 0 0 0 -7 -13 -22 -7 0 0 0 0 -1 0 -11 -13 -6 -14 -42 -44 -15 -10 -6 -4 -3 -2 -4 0 -16 -16 0 0 0 0 0 0 0 0 0
0 -17 0 -6 0 0 0 0 0 0 -8 0 0 0 0 0 0 0 -2 -13 -16 0 0 -8 -23 -38 -39 -5 0 0 -6 0 0 -18 -39 0 0 0 0 0 0 0 0 0
-20 -15 -11 -27 -5 -5 0 0 0 -10 0 0 0 0 -1 0 -1 -1 -40 0 0 0 0 0 -9 -20 -37 -2 -5 -3 0 0 0 -6 -33 -22 0 0 0 0 0 0 0 0
-12 -6 -10 -25 -9 -13 0 0 -5 -17 -3 0 0 0 0 0 0 0 -30 0 0 0 -1 -24 -36 -3 -54 0 -6 -19 0 0 0 0 0 0 0 0 0 0 0 0 0 0
-13 -12 0 -10 -4 -3 0 -11 -22 -8 0 -3 0 0 -12 -6 0 0 0 0 0 0 -2 -18 -8 -2 -19 -13 -14 -28 0 0 0 0 0 0 0 0 0 0 0 0 0 0
0 -13 -12 -7 -2 0 -2 0 -15 -16 -6 -11 -6 -1 -9 -8 -16 -28 -4 0 0 0 -1 -30 -13 -1 -40 -19 0 0 0 0 0 0 0 0 0 0 0 0 0 0 0 0
0 -7 -18 0 0 0 0 -5 -2 -7 -16 -16 -7 -25 -31 -32 -16 -9 -12 -15 -11 -32 -46 0 -3 -4 -9 0 0 0 0 0 0 0 0 0 0 0 0 0 0 0 0 0
-4 -2 0 0 0 -6 -4 -2 -20 -17 -16 -8 -13 -13 -6 -10 -16 -7 -2 -9 -5 -14 -16 0 -3 -8 0 0 0 0 0 0 0 0 0 0 0 0 0 0 0 0 0 0
-36 0 0 0 0 -6 0 -7 -2 -4 -2 -38 -10 -2 -9 -17 -12 -3 -9 -35 -6 -11 0 -18 -3 -21 0 0 0 0 0 0 0 0 0 0 0 0 0 0 0 0 0 0
Wind_Speed
18 22 24 21 23 29 33 38 39 36 35 41 42 44 37 35 26 21 26 23 22 21 26 16 16 15 14 17 20 19 19 19 19 20 20 20 19 16 15 14 12 10 10 9
25 28 25 27 27 31 33 37 40 43 39 36 42 48 41 34 33 33 28 28 26 20 23 24 16 16 16 17 20 20 21 20 20 20 20 20 18 18 17 15 13 12 12 11
27 25 27 29 30 30 31 32 38 38 40 39 40 53 44 39 35 31 27 26 22 20 24 22 18 18 17 18 21 22 22 21 20 20 21 21 19 19 19 17 15 15 13 13
29 30 28 31 34 30 38 30 34 39 41 43 34 54 46 41 39 33 27 37 21 25 30 30 24 20 18 17 18 20 21 21 21 21 21 23 23 23 21 20 18 17 16 16
27 29 27 29 26 27 34 35 38 40 42 45 39 36 48 38 42 38 29 21 21 23 22 24 22 17 18 15 16 17 19 20 22 22 21 23 24 23 21 20 19 19 18 17
36 31 35 34 35 30 30 34 36 36 37 43 41 36 50 44 42 37 20 19 21 22 23 22 22 24 13 13 12 13 15 18 19 20 21 22 23 22 21 20 21 20 20 19
35 34 27 30 34 30 28 33 40 40 39 45 38 41 34 37 28 22 17 19 22 23 25 23 22 20 18 11 10 13 15 18 19 20 21 22 21 21 22 22 21 21 21 22
43 45 25 26 26 31 30 30 35 43 39 34 30 31 26 24 20 18 16 18 20 22 23 24 24 23 19 20 19 16 16 19 19 21 21 23 22 23 24 21 21 21 20 21
38 37 22 26 27 29 30 32 34 36 36 40 39 40 27 21 23 23 22 25 27 26 25 22 21 22 21 21 23 23 16 15 16 21 22 23 23 23 25 24 23 22 22 21
28 40 32 27 27 28 33 34 38 33 40 42 38 41 33 22 21 22 23 25 30 29 28 27 22 21 23 23 23 22 23 20 18 17 19 20 22 23 25 25 24 22 22 21
28 29 35 33 28 33 29 31 31 35 39 46 46 37 21 20 21 25 30 35 36 36 35 32 30 24 22 22 22 23 22 23 23 18 16 18 20 21 23 23 22 22 21 20
26 29 34 41 40 37 32 34 32 38 38 34 36 41 18 17 20 28 35 38 42 41 39 36 35 33 22 21 22 23 26 24 24 25 21 20 18 18 19 21 20 20 19 18
26 31 37 39 36 30 29 26 28 29 30 39 41 40 19 24 30 32 37 38 37 37 39 35 31 35 34 23 24 24 22 25 27 29 27 19 20 20 18 17 18 18 18 17
26 34 37 43 42 42 43 35 28 27 34 37 38 43 41 42 46 48 41 40 37 34 33 35 37 33 31 34 33 23 20 20 24 28 28 26 21 19 16 15 14 14 14 15
28 39 36 39 42 44 46 48 45 44 42 45 51 49 51 49 48 49 49 41 41 41 36 39 39 39 33 35 31 29 28 21 20 22 23 25 22 23 16 14 13 12 12 13
26 32 33 43 41 40 43 43 43 45 47 51 52 56 51 50 49 47 44 45 42 43 38 40 42 37 33 32 34 32 32 27 25 26 26 27 22 18 16 13 12 11 12 12
36 35 36 42 37 38 40 37 39 42 41 44 48 48 47 52 48 45 45 41 39 33 36 39 39 34 32 31 30 31 31 30 26 22 19 19 18 16 16 14 13 13 12 12
38 37 38 45 44 49 42 36 40 46 45 44 45 45 46 48 47 43 40 40 32 35 37 37 34 37 35 33 32 31 30 31 33 24 20 17 17 17 15 15 15 15 14 14
29 34 40 43 46 46 48 43 43 46 49 40 47 46 44 45 45 42 37 29 35 39 41 39 36 39 38 36 34 33 31 32 34 35 21 20 19 17 17 16 16 16 16 16
27 26 33 38 42 47 40 39 44 46 48 41 40 40 41 41 44 41 38 34 34 33 35 37 36 32 33 33 35 34 34 35 33 32 23 19 15 16 18 15 14 15 14 14
33 33 36 38 43 42 33 39 42 45 44 43 42 41 40 40 39 41 37 39 41 42 40 42 39 33 31 35 31 33 33 32 31 27 23 18 14 14 14 13 12 12 13 12
36 37 38 38 41 43 37 40 35 39 44 43 45 43 44 46 46 45 45 48 48 46 43 40 42 36 30 30 31 31 31 30 27 25 23 20 16 13 12 11 11 11 11 11
42 37 41 39 39 42 47 47 47 47 46 46 45 47 46 48 51 49 45 43 45 45 43 38 39 35 34 28 26 29 28 26 23 21 21 18 14 11 8 8 9 10 10 10
39 39 45 46 44 47 49 46 43 45 46 45 44 41 42 44 47 46 47 48 42 44 34 40 35 34 32 26 26 25 24 22 20 18 17 14 7 3 3 1 3 4 5 5
36 39 40 38 37 34 33 36 36 34 28 34 31 28 26 27 40 41 40 42 39 42 35 33 31 30 23 23 25 24 21 17 16 14 12 10 7 4 1 0 4 6 4 8
23 23 23 26 25 25 27 29 24 26 36 33 26 21 16 21 23 40 40 37 38 32 35 32 28 21 19 21 24 19 14 13 11 10 9 8 5 4 5 7 7 7 8 8
Wind_Direction
301 297 294 299 295 296 299 297 298 301 304 301 299 297 298 300 300 295 297 299 292 285 287 256 248 240 243 250 226 225 225 228 231 240 236 238 240 241 247 252 251 243 249 248
295 281 292 297 294 296 296 295 296 298 302 301 298 293 295 296 295 296 295 291 288 280 283 282 243 240 241 247 231 226 228 228 234 241 243 244 242 247 252 253 250 248 247 247
289 297 305 297 296 291 289 290 297 297 301 297 299 292 294 295 294 293 290 289 284 281 282 276 258 237 239 245 232 234 233 232 233 240 247 248 249 250 251 252 252 252 249 253
298 302 290 290 289 295 294 301 298 301 299 294 297 291 294 299 300 299 297 302 262 283 287 284 281 234 232 237 236 236 236 235 236 238 245 245 246 248 253 253 256 255 252 253
294 307 310 300 297 298 288 304 300 297 297 301 287 292 291 299 296 297 295 315 311 305 307 298 297 276 235 230 236 234 235 239 240 240 248 248 251 253 253 253 254 256 256 254
296 300 298 299 299 298 304 305 303 297 292 287 281 291 291 294 302 291 306 304 308 311 314 311 301 306 239 244 251 232 233 240 237 235 246 247 247 250 252 251 253 254 254 255
302 300 297 307 300 294 293 300 299 294 284 284 291 288 286 304 305 315 309 312 312 312 311 312 309 305 298 270 260 256 254 249 246 243 248 255 251 250 254 253 253 255 255 253
298 294 310 319 309 304 301 296 291 292 292 297 303 293 294 314 321 330 330 325 323 319 316 316 313 305 299 293 278 272 269 263 257 253 247 255 255 256 263 256 257 257 256 257
305 298 314 307 306 309 304 296 298 295 290 289 286 285 291 296 308 316 314 320 316 318 319 319 320 317 308 301 296 288 277 269 263 260 256 255 259 254 259 261 260 260 262 262
307 296 296 306 303 303 297 300 292 290 292 285 286 285 283 290 294 302 316 319 308 315 317 313 317 318 318 311 308 299 290 286 279 262 257 257 258 260 263 266 259 259 263 264
302 295 295 297 295 300 299 299 297 293 288 286 285 284 296 293 293 295 302 306 313 310 307 302 310 320 318 317 311 303 299 295 286 278 266 263 262 264 262 265 259 259 262 259
297 297 294 290 294 299 294 295 292 289 289 289 288 284 284 292 297 301 303 303 305 305 303 307 308 313 316 313 314 304 297 299 292 287 277 265 264 264 264 265 260 258 258 256
303 296 297 296 296 290 290 294 295 293 291 283 282 284 284 289 294 302 303 303 306 310 303 305 303 300 309 313 304 305 307 297 292 286 283 276 269 271 272 270 265 257 256 254
298 290 289 289 290 294 291 293 290 288 289 290 284 286 287 289 293 296 301 302 300 301 305 303 299 296 296 295 299 301 302 299 295 287 286 279 274 272 273 273 265 257 254 254
296 288 289 289 290 287 286 286 286 285 285 283 285 285 286 289 294 297 298 299 296 297 296 296 296 292 297 292 298 298 296 297 294 296 293 284 279 276 273 267 261 250 249 249
298 293 296 292 292 291 288 286 287 286 287 288 289 287 291 294 295 298 301 300 296 293 297 300 298 300 301 300 300 306 304 302 293 290 290 286 282 279 273 262 255 251 248 251
293 296 297 292 299 297 289 291 291 290 292 293 291 295 296 291 295 298 299 303 306 304 301 303 306 310 305 307 309 307 312 312 306 296 295 294 283 276 273 265 257 255 249 249
292 292 292 292 294 286 291 294 294 293 295 297 298 299 298 296 298 301 303 306 307 305 303 303 305 307 306 313 311 312 311 312 310 299 289 288 284 281 274 268 262 259 258 256
289 290 290 288 287 291 290 293 294 296 296 303 298 299 298 299 297 298 302 315 308 306 303 304 303 304 307 303 309 308 311 311 311 309 286 288 284 275 272 269 265 263 263 264
305 298 293 292 290 290 297 298 295 298 293 300 302 301 300 301 293 296 299 313 311 312 310 305 304 309 307 305 306 307 308 309 310 311 302 295 285 267 268 264 264 263 264 266
299 298 293 293 293 296 301 302 297 291 297 300 303 303 303 301 301 304 304 304 302 301 305 301 301 302 304 307 311 312 311 311 313 314 313 303 286 265 260 257 256 259 259 255
301 300 297 298 294 295 302 299 299 303 303 301 299 300 299 298 297 297 297 292 296 294 298 295 294 305 307 303 310 312 313 315 316 316 313 308 293 272 258 251 258 256 252 251
297 302 300 296 297 301 300 298 298 300 302 302 302 299 300 298 294 293 296 295 292 289 294 295 297 306 307 307 315 312 313 317 320 320 318 314 302 287 262 253 261 256 252 246
304 305 298 299 294 297 296 298 301 300 297 290 295 302 302 302 299 296 292 287 291 286 297 285 301 303 307 312 318 319 317 318 324 327 332 331 315 312 297 1 126 173 180 182
306 287 277 258 262 262 258 260 261 257 253 257 255 254 259 309 303 297 294 284 271 261 285 297 305 310 316 319 317 317 317 324 324 342 350 2 10 55 79 327 94 108 109 121
244 240 239 247 255 253 256 257 257 260 285 260 257 264 298 256 260 267 267 254 268 282 278 293 305 321 321 328 317 317 328 328 344 5 14 18 22 44 68 76 69 61 83 90